User: anonymous
Location: Melbourne
(37.8170°S, 144.9670°E)
Time: 06:54:36
(UTC+11:00)
Language:

CZ-3 R/B - Orbit

View from above orbital plane
View from above orbital plane
View from above satellite
View from above satellite

Ground track
Ground track

The orbit data is extracted from the following two-line orbital elements,

1 29517U 06048B   14292.92987845  .00096366  00000-0  22856-2 0  5016
2 29517 028.5008 096.5111 5254754 163.7915 255.5991 05.31404564106359
Epoch (UTC): 19 October 2014 22:19:01
Eccentricity: 0.5254754
inclination: 28.5008°
perigee height: 204 km
apogee height: 14782 km
right ascension of ascending node: 96.5111°
argument of perigee: 163.7915°
revolutions per day: 5.31404564
mean anomaly at epoch: 255.5991°
orbit number at epoch: 10635

The dashed part of the orbit path shows where the satellite is in the earth's shadow,  

DLR